Location: Normandy Village
(37.8755°N, 122.2655°W)
Time: 01:41:41
(UTC+00:00)

ATLAS 3B R/B - Pass Details

Date: 22 September 2019
Orbit: 1028 x 1166 km, 63.8° (Epoch: 07 October)

Event Time Altitude Azimuth Distance (km) Brightness Sun altitude
Exits shadow 12:19:11 16° 304° (NW) 2,402 4.2 -19.8°
Maximum altitude 12:20:58 18° 323° (NW) 2,301 4.2 -19.5°
Drops below altitude 10° 12:25:20 10° 5° (N) 2,830 5.2 -18.6°
Sets 12:28:57 0° 24° (NNE) 3,785 6.2 -17.9°
